Other Public Products
Issued by NWS Charleston, SC

Current Version | Previous Version | Graphics & Text | Print | Product List | Glossary On
Versions: 1 2 3 4 5 6 7 8 9 10 11 12 13 14 15 16 17 18 19 20 21 22 23 24 25 26 27 28 29 30 31 32 33 34 35 36 37 38 39 40 41 42 43 44 45 46 47 48 49 50
000 FPUS82 KCHS 192227 OPUCHS TEST...KCHS/KSAV Gateway Observations...TEST National Weather Service Charleston SC 500 PM EST SUN NOV 19 2017 NOTE: "fair" indicates few or no clouds below 12,000 feet with no significant weather and/or obstructions to visibility. SCZ050-WAZ558-NCZ071-TXZ119-213-PAZ071-DCZ001-FLZ074-172-MI076- NYZ176-178-MAZ016-IL014-TNZ027-NJZ106-GAZ044-MD014-192300- ...Gateway Observations for Charleston International... CITY SKY/WX TMP DP RH WIND PRES REMARKS Chas Airport CLEAR 61 39 44 NW8 29.90R Seattle CLOUDY 52 28 39 SW12 29.76F Charlotte CLEAR 53 28 38 NW9 29.95R Dallas DFW PTSUNNY 62 26 25 CALM 30.24F Dallas Love PTSUNNY 62 25 24 SW3 30.25F Philladelphia MOCLDY 48 24 39 W15G29 29.72R Wash National CLOUDY 48 28 46 W17G28 29.84R Baltimore MOCLDY 45 27 49 W14 29.80R Miami PTCLDY 81 60 48 W7 29.90R Detroit CLOUDY 34 21 59 W20G26 29.91R WCI 23 Newark MOCLDY 47 25 42 NW12G24 29.64R Laguardia PTCLDY 47 27 45 NW20G28 29.62R J F K PTCLDY 45 26 47 NW18G24 29.63R Boston Logan PTCLDY 43 27 53 W25G31 29.43R Ft. Lauderdale PTCLDY 79 62 56 W7 29.89R Chicago O`Hare MOCLDY 34 16 47 W14 30.05R WCI 25 Chicago Midway MOCLDY 35 17 47 W10 30.06R WCI 27 Houston Bush PTSUNNY 65 30 27 N8 30.21F Houston Hobby PTSUNNY 63 31 30 N10 30.21S Nashville CLEAR 46 20 35 NW10 30.17R Atlanta CLEAR 52 31 44 NW14 30.03R $$ GAZ044-118-TXZ119-213-NCZ071-DCZ001-MDZ014-506-PAZ021-071-NJZ106- NYZ176-178-MAZ106-OHZ011-021-055-MIZ076-KYZ091-ILZ014-INZ047- MNZ060-ONZ431-192300- ...Gateway Observations for Savannah International... CITY SKY/WX TMP DP RH WIND PRES REMARKS Savannah Arpt CLEAR 62 38 40 NW10 29.94R Atlanta CLEAR 52 31 44 NW14 30.03R Charlotte CLEAR 53 28 38 NW9 29.95R Dallas DFW PTSUNNY 62 26 25 CALM 30.24F Houston Bush PTSUNNY 65 30 27 N8 30.21F Wash National CLOUDY 48 28 46 W17G28 29.84R Wash Dulles CLOUDY 44 27 51 NW13G22 29.84R Baltimore MOCLDY 45 27 49 W14 29.80R Philadelphia MOCLDY 48 24 39 W15G29 29.72R Newark MOCLDY 47 25 42 NW12G24 29.64R Laguardia PTCLDY 47 27 45 NW20G28 29.62R J F K PTCLDY 45 26 47 NW18G24 29.63R Boston PTCLDY 43 27 53 W25G31 29.43R Pittsburg CLOUDY 35 32 88 W8 29.85R WCI 29 Akron FLURRIES 36 25 64 NW16G26 29.88R WCI 26 Cleveland LGT SNOW 34 29 82 W15G21 29.93R WCI 24 Cincinnati PTCLDY 36 25 64 W17 30.06R WCI 26 Columbus CLOUDY 35 25 66 W16G24 30.02R WCI 25 Detroit CLOUDY 34 21 59 W20G26 29.91R WCI 23 Chicago O`Hare MOCLDY 34 16 47 W14 30.05R WCI 25 Minneapolis PTCLDY 41 24 51 SW6 29.90F Indianapolis MOCLDY 32 22 66 W12 30.10R WCI 23 Toronto Canada PTCLDY 32 19 59 NW20G33 29.73R WCI 20 $$

USA.gov is the U.S. government's official web portal to all federal, state and local government web resources and services.